Terug naar catalogus

ETS 6 DEB

ActiefHEO
NORAD 23248·DEBRIS·🇯🇵 Japan

Gelanceerd Aug 28, 1994 vanaf Tanegashima Space Center

Loading…

Volgende Passages (komende 24 uur)

TLE

VersSource: Space-Track

Epoch: Sep 14, 2026, 12:47 UTC

1 23248U 94056C   26257.53306947 -.00000146  00000-0  00000-0 0  9994
2 23248  12.1352 134.4595 5149319  13.1820 215.7052  1.70301003199223

Volg ETS 6 DEB in realtime met AllMySat

Download on the App Store